DW8343 Weather Reports


time (UTC)temp
C
wind
direction
speed
KPH
gust
KPH
rain 1hr
cm
rain 24hr
cm
rain mn
cm
humidity
%
barometer
mb
20260508033723 17 242 0.0 0.0 0.00 0.00 0.00 48 1015.5
20260508033222 17 162 0.0 1.6 0.00 0.00 0.00 47 1015.5
20260508032719 17 160 0.0 0.0 0.00 0.00 0.00 47 1015.4
20260508032216 17 246 0.0 3.2 0.00 0.00 0.00 46 1015.4
20260508031712 18 298 0.0 3.2 0.00 0.00 0.00 46 1015.4
20260508031209 18 22 0.0 1.6 0.00 0.00 0.00 45 1015.5
20260508030705 18 66 0.0 0.0 0.00 0.00 0.00 45 1015.5
20260508030203 18 254 0.0 1.6 0.00 0.00 0.00 45 1015.5
20260508025659 18 219 1.6 3.2 0.00 0.00 0.00 44 1015.2
20260508025156 18 262 0.0 1.6 0.00 0.00 0.00 44 1015.4
20260508024652 17 180 0.0 0.0 0.00 0.00 0.00 46 1015.2
20260508024149 18 209 0.0 0.0 0.00 0.00 0.00 47 1015.2
20260508023645 18 213 0.0 0.0 0.00 0.00 0.00 48 1015.1
20260508023143 18 181 0.0 0.0 0.00 0.00 0.00 46 1015.0
20260508022639 19 208 0.0 1.6 0.00 0.00 0.00 42 1015.0
20260508022136 19 283 0.0 1.6 0.00 0.00 0.00 42 1015.1
20260508021632 19 256 0.0 1.6 0.00 0.00 0.00 42 1015.3
20260508021127 20 189 0.0 1.6 0.00 0.00 0.00 40 1015.1
20260508020626 20 261 0.0 0.0 0.00 0.00 0.00 40 1015.1
20260508020123 20 169 0.0 0.0 0.00 0.00 0.00 40 1015.1
20260508015620 20 169 0.0 3.2 0.00 0.00 0.00 40 1015.0
20260508015117 20 222 0.0 1.6 0.00 0.00 0.00 40 1014.9
20260508014613 20 224 0.0 0.0 0.00 0.00 0.00 40 1014.9
20260508014110 20 159 0.0 1.6 0.00 0.00 0.00 39 1014.9
20260508013606 20 292 1.6 1.6 0.00 0.00 0.00 38 1014.9
20260508013103 21 14 0.0 0.0 0.00 0.00 0.00 38 1014.7
20260508012601 21 266 1.6 3.2 0.00 0.00 0.00 37 1015.0
20260508012058 21 196 1.6 3.2 0.00 0.00 0.00 37 1015.0
20260508011556 21 145 1.6 4.8 0.00 0.00 0.00 37 1014.7
20260508011053 22 321 1.6 3.2 0.00 0.00 0.00 36 1014.9
20260508010549 22 175 0.0 3.2 0.00 0.00 0.00 36 1014.6
20260508010047 22 174 1.6 3.2 0.00 0.00 0.00 36 1014.6
20260508005543 22 272 1.6 4.8 0.00 0.00 0.00 36 1014.7
20260508005034 22 300 1.6 3.2 0.00 0.00 0.00 35 1014.4
20260508004530 22 185 1.6 3.2 0.00 0.00 0.00 34 1014.4
20260508004027 22 71 1.6 1.6 0.00 0.00 0.00 33 1014.5
20260508003524 23 223 1.6 4.8 0.00 0.00 0.00 33 1014.4
20260508003022 23 305 0.0 3.2 0.00 0.00 0.00 33 1014.3
20260508002517 23 169 1.6 4.8 0.00 0.00 0.00 32 1014.3
20260508002015 23 246 1.6 3.2 0.00 0.00 0.00 32 1014.5
20260508001511 23 230 0.0 4.8 0.00 0.00 0.00 32 1014.5
20260508001007 24 105 1.6 4.8 0.00 0.00 0.00 31 1014.4
20260508000502 24 8 0.0 0.0 0.00 0.00 0.00 31 1014.4
20260507235959 24 298 1.6 4.8 0.00 0.00 0.00 31 1014.6
20260507235451 24 61 1.6 3.2 0.00 0.00 0.00 32 1014.4
20260507234948 25 245 3.2 3.2 0.00 0.00 0.00 30 1014.4
20260507234445 25 56 1.6 3.2 0.00 0.00 0.00 32 1014.7
20260507233941 25 221 1.6 3.2 0.00 0.00 0.00 30 1014.6
20260507233438 24 92 1.6 4.8 0.00 0.00 0.00 31 1014.6
20260507232937 25 186 4.8 9.7 0.00 0.00 0.00 30 1014.8
20260507232432 25 250 1.6 3.2 0.00 0.00 0.00 30 1014.8
20260507231929 25 141 0.0 4.8 0.00 0.00 0.00 30 1014.9
20260507231420 25 194 0.0 3.2 0.00 0.00 0.00 31 1015.1
20260507230918 24 245 0.0 3.2 0.00 0.00 0.00 31 1014.9
20260507230415 25 18 1.6 6.4 0.00 0.00 0.00 31 1015.0
20260507225914 25 256 4.8 6.4 0.00 0.00 0.00 31 1015.1
20260507225411 25 22 4.8 9.7 0.00 0.00 0.00 30 1015.0
20260507224907 25 8 0.0 3.2 0.00 0.00 0.00 29 1015.3
20260507224403 25 23 0.0 1.6 0.00 0.00 0.00 29 1015.0
20260507223900 25 33 0.0 1.6 0.00 0.00 0.00 28 1015.2
20260507223357 25 129 1.6 4.8 0.00 0.00 0.00 27 1015.1
20260507222854 25 58 3.2 4.8 0.00 0.00 0.00 29 1015.0
20260507222350 25 240 3.2 11.3 0.00 0.00 0.00 27 1015.3
20260507221847 26 215 0.0 1.6 0.00 0.00 0.00 28 1015.2
20260507221343 25 258 3.2 4.8 0.00 0.00 0.00 27 1015.4
20260507220839 25 267 3.2 3.2 0.00 0.00 0.00 27 1015.4
20260507220338 26 15 0.0 3.2 0.00 0.00 0.00 29 1015.4
20260507215833 25 344 1.6 11.3 0.00 0.00 0.00 29 1015.4
20260507215330 26 205 3.2 6.4 0.00 0.00 0.00 28 1015.2
20260507214827 25 20 1.6 3.2 0.00 0.00 0.00 29 1015.3
20260507214325 25 302 1.6 11.3 0.00 0.00 0.00 29 1015.5
20260507213820 26 126 3.2 4.8 0.00 0.00 0.00 26 1015.5
20260507213318 26 50 0.0 3.2 0.00 0.00 0.00 30 1015.6
20260507212814 25 224 3.2 3.2 0.00 0.00 0.00 29 1015.7
20260507212310 25 226 1.6 6.4 0.00 0.00 0.00 28 1015.6
20260507211807 25 236 6.4 11.3 0.00 0.00 0.00 28 1015.9
20260507211304 25 221 1.6 11.3 0.00 0.00 0.00 30 1015.9
20260507210801 25 225 3.2 4.8 0.00 0.00 0.00 29 1015.9
20260507210257 25 223 3.2 4.8 0.00 0.00 0.00 29 1015.9
20260507205753 25 220 1.6 4.8 0.00 0.00 0.00 30 1015.8
20260507205251 26 348 0.0 3.2 0.00 0.00 0.00 28 1016.2
20260507204747 25 221 0.0 3.2 0.00 0.00 0.00 32 1016.2
20260507204245 24 136 1.6 3.2 0.00 0.00 0.00 32 1016.3
20260507203742 25 220 4.8 6.4 0.00 0.00 0.00 33 1016.4
20260507203240 24 274 1.6 4.8 0.00 0.00 0.00 31 1016.7
20260507202735 24 232 3.2 4.8 0.00 0.00 0.00 31 1016.8
20260507202226 25 208 3.2 6.4 0.00 0.00 0.00 31 1016.7
20260507201720 23 49 3.2 4.8 0.00 0.00 0.00 33 1016.9
20260507201217 23 222 3.2 4.8 0.00 0.00 0.00 32 1017.0
20260507200708 23 91 3.2 4.8 0.00 0.00 0.00 31 1017.0
20260507200205 23 52 0.0 4.8 0.00 0.00 0.00 34 1017.1
20260507195701 23 92 3.2 6.4 0.00 0.00 0.00 32 1017.3
20260507195158 23 40 1.6 11.3 0.00 0.00 0.00 35 1017.2
20260507194655 23 267 6.4 9.7 0.00 0.00 0.00 33 1017.4
20260507194151 23 243 4.8 9.7 0.00 0.00 0.00 32 1017.3
20260507193648 22 338 1.6 11.3 0.00 0.00 0.00 36 1017.6
20260507193145 23 249 1.6 6.4 0.00 0.00 0.00 35 1017.7
20260507192641 23 215 1.6 6.4 0.00 0.00 0.00 35 1017.8
20260507192138 23 186 1.6 4.8 0.00 0.00 0.00 34 1017.8
20260507191633 23 93 1.6 11.3 0.00 0.00 0.00 33 1018.0
20260507191130 23 244 3.2 12.9 0.00 0.00 0.00 35 1018.0
20260507190628 23 244 8.0 11.3 0.00 0.00 0.00 35 1018.0
20260507190127 22 273 1.6 1.6 0.00 0.00 0.00 36 1018.1
20260507185625 22 139 3.2 3.2 0.00 0.00 0.00 36 1018.1
20260507185121 22 262 0.0 6.4 0.00 0.00 0.00 38 1018.4
20260507184619 22 233 3.2 9.7 0.00 0.00 0.00 38 1018.3
20260507184117 22 266 3.2 14.5 0.00 0.00 0.00 38 1018.4
20260507183612 22 255 3.2 9.7 0.00 0.00 0.00 39 1018.7
20260507183110 21 265 3.2 6.4 0.00 0.00 0.00 39 1018.5
20260507182606 21 258 3.2 11.3 0.00 0.00 0.00 40 1018.7
20260507182102 21 168 4.8 11.3 0.00 0.00 0.00 38 1018.7
20260507181559 21 137 6.4 9.7 0.00 0.00 0.00 39 1018.9
20260507181055 21 270 1.6 14.5 0.00 0.00 0.00 41 1018.9
20260507180552 21 256 6.4 9.7 0.00 0.00 0.00 41 1018.7
20260507180049 21 242 0.0 4.8 0.00 0.00 0.00 41 1018.9
20260507175545 20 256 4.8 9.7 0.00 0.00 0.00 41 1019.2
20260507175043 21 60 1.6 4.8 0.00 0.00 0.00 42 1019.2
20260507174539 21 18 1.6 6.4 0.00 0.00 0.00 43 1019.2
20260507174037 20 259 4.8 4.8 0.00 0.00 0.00 44 1019.4
20260507173534 20 258 1.6 6.4 0.00 0.00 0.00 43 1019.7
20260507173031 20 280 6.4 9.7 0.00 0.00 0.00 41 1019.7
20260507172527 20 197 6.4 9.7 0.00 0.00 0.00 42 1019.9
20260507172024 19 50 3.2 9.7 0.00 0.00 0.00 45 1019.7
20260507171519 20 354 0.0 1.6 0.00 0.00 0.00 47 1020.0
20260507171017 20 243 1.6 4.8 0.00 0.00 0.00 43 1020.0
20260507170513 19 139 4.8 9.7 0.00 0.00 0.00 42 1020.3
20260507170010 19 206 3.2 9.7 0.00 0.00 0.00 43 1020.2
20260507165506 19 88 0.0 9.7 0.00 0.00 0.00 43 1020.3
20260507165003 19 28 1.6 4.8 0.00 0.00 0.00 45 1020.3
20260507164459 19 196 4.8 6.4 0.00 0.00 0.00 44 1020.5
20260507163956 18 97 3.2 4.8 0.00 0.00 0.00 44 1020.4
20260507163453 19 239 1.6 3.2 0.00 0.00 0.00 43 1020.7
20260507162950 18 283 3.2 9.7 0.00 0.00 0.00 46 1020.9
20260507162445 18 328 3.2 9.7 0.00 0.00 0.00 46 1020.7
20260507161943 18 91 1.6 6.4 0.00 0.00 0.00 45 1020.8
20260507161439 18 206 4.8 11.3 0.00 0.00 0.00 45 1020.8
20260507160936 18 258 1.6 9.7 0.00 0.00 0.00 44 1020.7
20260507160432 17 62 0.0 4.8 0.00 0.00 0.00 46 1020.8
20260507155927 17 247 6.4 6.4 0.00 0.00 0.00 44 1020.9
20260507155424 17 170 4.8 9.7 0.00 0.00 0.00 43 1020.8
20260507154921 17 280 1.6 3.2 0.00 0.00 0.00 46 1020.9
20260507154418 17 176 4.8 11.3 0.00 0.00 0.00 45 1020.9
20260507153915 18 239 1.6 4.8 0.00 0.00 0.00 47 1020.9
20260507153412 17 335 1.6 6.4 0.00 0.00 0.00 46 1021.2
20260507152908 17 6 4.8 6.4 0.00 0.00 0.00 46 1021.0
20260507152404 17 222 3.2 4.8 0.00 0.00 0.00 46 1021.0
20260507151900 17 89 3.2 11.3 0.00 0.00 0.00 46 1021.2
20260507151356 17 306 3.2 9.7 0.00 0.00 0.00 47 1021.1
20260507150854 17 96 1.6 4.8 0.00 0.00 0.00 48 1021.1
20260507150351 16 249 3.2 4.8 0.00 0.00 0.00 51 1021.4
20260507145847 17 200 1.6 1.6 0.00 0.00 0.00 50 1021.3
20260507145343 16 14 0.0 9.7 0.00 0.00 0.00 52 1021.3
20260507144840 16 0 3.2 6.4 0.00 0.00 0.00 50 1021.5
20260507144337 16 239 4.8 6.4 0.00 0.00 0.00 52 1021.7
20260507143834 15 239 3.2 4.8 0.00 0.00 0.00 54 1021.6
20260507143331 15 340 1.6 3.2 0.00 0.00 0.00 54 1021.5
20260507142827 15 272 1.6 4.8 0.00 0.00 0.00 56 1021.8
20260507142324 15 250 0.0 4.8 0.00 0.00 0.00 60 1021.7
20260507141821 15 122 3.2 3.2 0.00 0.00 0.00 60 1021.6
20260507141317 15 261 0.0 1.6 0.00 0.00 0.00 60 1021.7
20260507140814 14 55 0.0 0.0 0.00 0.00 0.00 64 1021.8
20260507140311 14 216 0.0 1.6 0.00 0.00 0.00 64 1022.0
20260507135809 13 276 0.0 1.6 0.00 0.00 0.00 67 1022.1
20260507135306 13 192 0.0 3.2 0.00 0.00 0.00 67 1022.2
20260507134802 13 165 0.0 3.2 0.00 0.00 0.00 69 1022.0
20260507134258 13 186 0.0 1.6 0.00 0.00 0.00 67 1021.9
20260507133754 13 347 0.0 1.6 0.00 0.00 0.00 67 1021.9
20260507133250 13 347 0.0 0.0 0.00 0.00 0.00 69 1021.8
20260507132749 12 347 0.0 0.0 0.00 0.00 0.00 71 1022.1
20260507132245 12 347 0.0 0.0 0.00 0.00 0.00 73 1022.0
20260507131742 11 166 0.0 1.6 0.00 0.00 0.00 78 1021.9
20260507131239 10 339 0.0 0.0 0.00 0.00 0.00 83 1022.0
20260507130735 9 335 0.0 0.0 0.00 0.00 0.00 84 1021.9
20260507130233 8 335 0.0 0.0 0.00 0.00 0.00 86 1021.8
20260507125732 8 335 0.0 0.0 0.00 0.00 0.00 88 1021.8
20260507125229 8 335 0.0 0.0 0.00 0.00 0.00 90 1021.8
20260507124726 7 335 0.0 0.0 0.00 0.00 0.00 92 1021.6
20260507124222 7 335 0.0 0.0 0.00 0.00 0.00 93 1021.6
20260507123721 7 335 0.0 0.0 0.00 0.00 0.00 93 1021.6
20260507123218 7 335 0.0 0.0 0.00 0.00 0.00 94 1021.7
20260507122713 6 335 0.0 0.0 0.00 0.00 0.00 94 1021.4
20260507122209 6 335 0.0 0.0 0.00 0.00 0.00 94 1021.6
20260507121705 6 335 0.0 0.0 0.00 0.00 0.00 94 1021.5
20260507121201 6 335 0.0 0.0 0.00 0.00 0.00 94 1021.3
20260507120657 6 335 0.0 0.0 0.00 0.00 0.00 94 1021.1
20260507120154 6 335 0.0 0.0 0.00 0.00 0.00 93 1021.0
20260507115651 6 335 0.0 0.0 0.00 0.00 0.00 93 1020.9
20260507115146 6 335 0.0 0.0 0.00 0.00 0.00 93 1021.2
20260507114643 6 335 0.0 0.0 0.00 0.00 0.00 93 1021.1
20260507114140 6 335 0.0 0.0 0.00 0.00 0.00 93 1021.1
20260507113637 6 335 0.0 0.0 0.00 0.00 0.00 93 1021.2
20260507113134 6 335 0.0 0.0 0.00 0.00 0.00 93 1021.0
20260507112632 6 335 0.0 0.0 0.00 0.00 0.00 93 1021.1
20260507112128 6 335 0.0 0.0 0.00 0.00 0.00 93 1020.9
20260507111626 6 335 0.0 0.0 0.00 0.00 0.00 93 1021.2
20260507111122 6 335 0.0 0.0 0.00 0.00 0.00 92 1021.1
20260507110618 6 335 0.0 0.0 0.00 0.00 0.00 92 1021.1
20260507110115 6 335 0.0 0.0 0.00 0.00 0.00 92 1021.0
20260507105612 6 335 0.0 0.0 0.00 0.00 0.00 92 1021.2
20260507105108 6 335 0.0 0.0 0.00 0.00 0.00 92 1021.2
20260507104606 6 335 0.0 0.0 0.00 0.00 0.00 92 1021.1
20260507104102 6 335 0.0 0.0 0.00 0.00 0.00 92 1021.2
20260507103558 6 335 0.0 0.0 0.00 0.00 0.00 92 1021.0
20260507103055 6 335 0.0 0.0 0.00 0.00 0.00 92 1021.1
20260507102551 6 335 0.0 0.0 0.00 0.00 0.00 92 1021.0
20260507102047 6 335 0.0 0.0 0.00 0.00 0.00 91 1021.0
20260507101543 6 335 0.0 0.0 0.00 0.00 0.00 91 1021.2
20260507101039 6 335 0.0 0.0 0.00 0.00 0.00 91 1021.1
20260507100537 6 335 0.0 0.0 0.00 0.00 0.00 91 1020.9
20260507100035 6 335 0.0 0.0 0.00 0.00 0.00 91 1020.6
20260507095533 6 335 0.0 0.0 0.00 0.00 0.00 91 1020.8
20260507095029 6 335 0.0 0.0 0.00 0.00 0.00 91 1020.7
20260507094525 6 335 0.0 0.0 0.00 0.00 0.00 91 1020.8
20260507094022 6 335 0.0 0.0 0.00 0.00 0.00 91 1020.8
20260507093520 6 335 0.0 0.0 0.00 0.00 0.00 91 1021.0
20260507093018 6 335 0.0 0.0 0.00 0.00 0.00 91 1021.0
20260507092514 6 335 0.0 0.0 0.00 0.00 0.00 92 1020.9
20260507092011 6 335 0.0 0.0 0.00 0.00 0.00 92 1020.7
20260507091508 6 335 0.0 0.0 0.00 0.00 0.00 91 1021.1
20260507091004 6 335 0.0 0.0 0.00 0.00 0.00 91 1020.8
20260507090500 6 335 0.0 0.0 0.00 0.00 0.00 91 1020.9
20260507085956 6 335 0.0 0.0 0.00 0.00 0.00 91 1020.6
20260507085454 6 335 0.0 0.0 0.00 0.00 0.00 90 1020.4
20260507084950 6 335 0.0 0.0 0.00 0.00 0.00 90 1020.6
20260507084447 6 335 0.0 0.0 0.00 0.00 0.00 90 1020.7
20260507083944 6 335 0.0 0.0 0.00 0.00 0.00 89 1021.0
20260507083441 6 335 0.0 0.0 0.00 0.00 0.00 89 1020.5
20260507082937 6 335 0.0 0.0 0.00 0.00 0.00 89 1020.5
20260507082433 7 335 0.0 0.0 0.00 0.00 0.00 88 1020.7
20260507081930 6 335 0.0 0.0 0.00 0.00 0.00 88 1021.2
20260507081426 6 335 0.0 0.0 0.00 0.00 0.00 88 1021.0
20260507080923 7 335 0.0 0.0 0.00 0.00 0.00 88 1021.0
20260507080419 7 335 0.0 0.0 0.00 0.00 0.00 88 1020.9
20260507075920 7 335 0.0 0.0 0.00 0.00 0.00 87 1020.7
20260507075416 7 335 0.0 0.0 0.00 0.00 0.00 87 1020.8
20260507074913 7 335 0.0 0.0 0.00 0.00 0.00 87 1020.7
20260507074410 7 335 0.0 0.0 0.00 0.00 0.00 87 1020.7
20260507073908 7 335 0.0 0.0 0.00 0.00 0.00 87 1021.0
20260507073404 7 335 0.0 0.0 0.00 0.00 0.00 87 1021.2
20260507072901 7 335 0.0 0.0 0.00 0.00 0.00 87 1021.0
20260507072358 7 335 0.0 0.0 0.00 0.00 0.00 87 1020.9
20260507071856 7 335 0.0 0.0 0.00 0.00 0.00 86 1020.9
20260507071353 7 335 0.0 0.0 0.00 0.00 0.00 86 1021.0
20260507070848 7 335 0.0 0.0 0.00 0.00 0.00 86 1020.9
20260507070346 7 335 0.0 0.0 0.00 0.00 0.00 86 1020.8
20260507065843 7 335 0.0 0.0 0.00 0.00 0.00 85 1020.8
20260507065340 7 335 0.0 0.0 0.00 0.00 0.00 85 1020.7
20260507064837 7 335 0.0 0.0 0.00 0.00 0.00 84 1020.6
20260507064335 7 335 0.0 0.0 0.00 0.00 0.00 82 1020.5
20260507063833 7 335 0.0 0.0 0.00 0.00 0.00 82 1020.9
20260507063329 7 335 0.0 0.0 0.00 0.00 0.00 82 1020.9
20260507062826 8 335 0.0 0.0 0.00 0.00 0.00 81 1020.9
20260507062323 8 335 0.0 0.0 0.00 0.00 0.00 80 1021.0
20260507061821 8 336 0.0 1.6 0.00 0.00 0.00 80 1020.8
20260507061319 8 295 0.0 0.0 0.00 0.00 0.00 80 1021.4
20260507060817 8 295 0.0 0.0 0.00 0.00 0.00 78 1021.4
20260507060313 8 295 0.0 0.0 0.00 0.00 0.00 78 1021.5
20260507055810 8 295 0.0 0.0 0.00 0.00 0.00 77 1021.6
20260507055306 9 295 0.0 0.0 0.00 0.00 0.00 75 1021.6
20260507054802 9 295 0.0 0.0 0.00 0.00 0.00 75 1021.6
20260507054258 9 295 0.0 0.0 0.00 0.00 0.00 73 1021.6
20260507053756 10 295 0.0 0.0 0.00 0.00 0.00 72 1021.5
20260507053253 10 308 0.0 0.0 0.00 0.00 0.00 71 1021.5
20260507052752 10 308 0.0 0.0 0.00 0.00 0.00 70 1021.5
20260507052248 10 308 0.0 0.0 0.00 0.00 0.00 70 1021.5
20260507051746 10 308 0.0 0.0 0.00 0.00 0.00 71 1021.3
20260507051243 10 308 0.0 0.0 0.00 0.00 0.00 70 1021.1
20260507050739 10 308 0.0 0.0 0.00 0.00 0.00 70 1021.2
20260507050237 10 308 0.0 0.0 0.00 0.00 0.00 71 1021.2
20260507045733 10 308 0.0 0.0 0.00 0.00 0.00 71 1021.3
20260507045229 10 308 0.0 0.0 0.00 0.00 0.00 70 1021.2
20260507044727 10 308 0.0 0.0 0.00 0.00 0.00 68 1021.2
20260507044223 10 308 0.0 0.0 0.00 0.00 0.00 67 1021.2
20260507043720 11 309 0.0 0.0 0.00 0.00 0.00 66 1021.0
20260507043216 11 309 0.0 0.0 0.00 0.00 0.00 65 1020.9
20260507042713 11 306 0.0 0.0 0.00 0.00 0.00 64 1020.8
20260507042208 11 293 0.0 0.0 0.00 0.00 0.00 63 1020.5
20260507041706 11 41 0.0 1.6 0.00 0.00 0.00 62 1020.1
20260507041202 11 18 1.6 1.6 0.00 0.00 0.00 62 1020.4
20260507040659 11 44 0.0 6.4 0.00 0.00 0.00 62 1020.3
20260507040155 11 61 0.0 1.6 0.00 0.00 0.00 63 1020.0
20260507035651 11 61 0.0 1.6 0.00 0.00 0.00 64 1019.8
20260507035147 11 23 0.0 1.6 0.00 0.00 0.00 63 1020.2
20260507034644 11 57 0.0 0.0 0.00 0.00 0.00 65 1020.2
20260507034142 11 57 0.0 0.0 0.00 0.00 0.00 66 1020.5